This demonstration page uses our WeatherBlox Daily Observations layout. Learn more.

Left ArrowRight Arrow

38.80484, -77.04692

Hourly Observations for November 20, 2021

Temp ( °F °C ) Dew Point ( °F °C ) Humidity (%) Winds ( mph kmh ) Pressure ( in mb ) Visibility ( mi km ) Precip ( " mm )
12:52 am 00:52 Clear 37 2.8 22 -5.6 54 54 N 6 9 30.55 1035 10 16 0.00 0.00
1:52 am 01:52 Mostly Clear 35 1.7 23 -5 61 61 N 5 7 30.56 1035 10 16 0.00 0.00
2:52 am 02:52 Clear 34 1.1 24 -4.4 67 67 N 5 7 30.56 1035 10 16 0.00 0.00
3:52 am 03:52 Mostly Clear 34 1.1 24 -4.4 67 67 NW 5 7 30.56 1035 10 16 0.00 0.00
4:52 am 04:52 Clear 34 1.1 22 -5.6 61 61 NNW 6 9 30.56 1035 10 16 0.00 0.00
5:52 am 05:52 Mostly Clear 33 0.6 25 -3.9 72 72 NNW 6 9 30.58 1035 10 16 0.00 0.00
6:52 am 06:52 Mostly Clear 34 1.1 23 -5 64 64 NNW 5 7 30.59 1036 10 16 0.00 0.00
7:52 am 07:52 Mostly Sunny 36 2.2 25 -3.9 64 64 Calm 30.59 1036 10 16 0.00 0.00
8:52 am 08:52 Mostly Cloudy 41 5 27 -2.8 57 57 Calm 30.59 1036 10 16 0.00 0.00
9:52 am 09:52 Mostly Cloudy 44 6.7 26 -3.3 49 49 Calm 30.60 1036 10 16 0.00 0.00
10:52 am 10:52 Mostly Cloudy 45 7.2 26 -3.3 48 48 Calm 30.58 1036 10 16 0.00 0.00
11:52 am 11:52 Mostly Cloudy 46 7.8 27 -2.8 47 47 SSW 7 11 30.55 1035 10 16 0.00 0.00
12:52 pm 12:52 Cloudy 47 8.3 27 -2.8 46 46 S 9 15 30.53 1034 10 16 0.00 0.00
1:52 pm 13:52 Mostly Cloudy 48 8.9 27 -2.8 44 44 S 6 9 30.50 1033 10 16 0.00 0.00
2:52 pm 14:52 Mostly Cloudy 49 9.4 27 -2.8 43 43 S 9 15 30.48 1032 10 16 0.00 0.00
3:52 pm 15:52 Cloudy 47 8.3 27 -2.8 46 46 S 9 15 30.47 1032 10 16 0.00 0.00
4:52 pm 16:52 Cloudy 46 7.8 28 -2.2 50 50 S 12 19 30.46 1032 10 16 0.00 0.00
5:52 pm 17:52 Cloudy 44 6.7 30 -1.1 58 58 S 9 15 30.45 1031 10 16 0.00 0.00
6:52 pm 18:52 Mostly Cloudy 43 6.1 32 0 65 65 S 7 11 30.47 1032 10 16 0.00 0.00
7:52 pm 19:52 Mostly Cloudy 44 6.7 32 0 63 63 Calm 30.46 1031 10 16 0.00 0.00
8:52 pm 20:52 Mostly Cloudy 43 6.1 32 0 65 65 SSW 3 6 30.46 1031 10 16 0.00 0.00
9:52 pm 21:52 Mostly Cloudy 42 5.6 33 0.6 71 71 S 3 6 30.44 1031 10 16 0.00 0.00
10:52 pm 22:52 Mostly Cloudy 40 4.4 33 0.6 77 77 WSW 6 9 30.42 1030 10 16 0.00 0.00
11:52 pm 23:52 Mostly Cloudy 40 4.4 34 1.1 79 79 SSW 6 9 30.41 1030 10 16 0.00 0.00

Powered by AerisWeather